station,date_time,longitude_east,latitude_north,depth,sw_sal,sw_sal_result_value_qualifier,sea_water_temperature,sea_water_temperature_result_value_qualifier,sea_water_pressure,sea_water_pressure_result_value_qualifier,KD_PAR,KD_PAR_result_value_qualifier
CH3-1,2017-01-26T00:00:00Z,-79.35,54.00,5.45,18.18,,-1.06,,, NC,, NC
CH3-1,2017-01-26T00:10:00Z,-79.35,54.00,5.45,17.91,,-1.05,,, NC,, NC
CH3-1,2017-01-26T00:20:00Z,-79.35,54.00,5.45,17.91,,-1.03,,, NC,, NC
CH3-1,2017-01-26T00:30:00Z,-79.35,54.00,5.45,17.75,,-1.03,,, NC,, NC
CH3-1,2017-01-26T00:40:00Z,-79.35,54.00,5.45,17.77,,-1.03,,, NC,, NC
CH3-1,2017-01-26T00:50:00Z,-79.35,54.00,5.45,16.90,,-1.00,,, NC,, NC
CH3-1,2017-01-26T01:00:00Z,-79.35,54.00,5.45,16.48,,-0.99,,, NC,, NC
CH3-1,2017-01-26T01:10:00Z,-79.35,54.00,5.45,16.85,,-1.00,,, NC,, NC
CH3-1,2017-01-26T01:20:00Z,-79.35,54.00,5.45,17.55,,-1.02,,, NC,, NC
CH3-1,2017-01-26T01:30:00Z,-79.35,54.00,5.45,17.22,,-1.01,,, NC,, NC
CH3-1,2017-01-26T01:40:00Z,-79.35,54.00,5.45,17.41,,-1.00,,, NC,, NC
CH3-1,2017-01-26T01:50:00Z,-79.35,54.00,5.45,17.62,,-1.01,,, NC,, NC
CH3-1,2017-01-26T02:00:00Z,-79.35,54.00,5.45,17.80,,-1.03,,, NC,, NC
CH3-1,2017-01-26T02:10:00Z,-79.35,54.00,5.45,18.27,,-1.04,,, NC,, NC
CH3-1,2017-01-26T02:20:00Z,-79.35,54.00,5.45,18.41,,-1.06,,, NC,, NC
CH3-1,2017-01-26T02:30:00Z,-79.35,54.00,5.45,18.19,,-1.05,,, NC,, NC
CH3-1,2017-01-26T02:40:00Z,-79.35,54.00,5.45,17.63,,-1.01,,, NC,, NC
CH3-1,2017-01-26T02:50:00Z,-79.35,54.00,5.45,17.45,,-1.00,,, NC,, NC
CH3-1,2017-01-26T03:00:00Z,-79.35,54.00,5.45,17.31,,-0.99,,, NC,, NC
CH3-1,2017-01-26T03:10:00Z,-79.35,54.00,5.45,17.41,,-0.99,,, NC,, NC
CH3-1,2017-01-26T03:20:00Z,-79.35,54.00,5.45,17.51,,-1.00,,, NC,, NC
CH3-1,2017-01-26T03:30:00Z,-79.35,54.00,5.45,17.69,,-1.01,,, NC,, NC
CH3-1,2017-01-26T03:40:00Z,-79.35,54.00,5.45,18.07,,-1.02,,, NC,, NC
CH3-1,2017-01-26T03:50:00Z,-79.35,54.00,5.45,18.22,,-1.01,,, NC,, NC
CH3-1,2017-01-26T04:00:00Z,-79.35,54.00,5.45,18.26,,-1.00,,, NC,, NC
CH3-1,2017-01-26T04:10:00Z,-79.35,54.00,5.45,18.72,,-1.04,,, NC,, NC
CH3-1,2017-01-26T04:20:00Z,-79.35,54.00,5.45,19.06,,-1.05,,, NC,, NC
CH3-1,2017-01-26T04:30:00Z,-79.35,54.00,5.45,19.56,,-1.08,,, NC,, NC
CH3-1,2017-01-26T04:40:00Z,-79.35,54.00,5.45,19.80,,-1.10,,, NC,, NC
CH3-1,2017-01-26T04:50:00Z,-79.35,54.00,5.45,19.95,,-1.12,,, NC,, NC
CH3-1,2017-01-26T05:00:00Z,-79.35,54.00,5.45,19.89,,-1.11,,, NC,, NC
CH3-1,2017-01-26T05:10:00Z,-79.35,54.00,5.45,19.67,,-1.08,,, NC,, NC
CH3-1,2017-01-26T05:20:00Z,-79.35,54.00,5.45,18.24,,-1.01,,, NC,, NC
CH3-1,2017-01-26T05:30:00Z,-79.35,54.00,5.45,18.68,,-1.06,,, NC,, NC
CH3-1,2017-01-26T05:40:00Z,-79.35,54.00,5.45,19.22,,-1.08,,, NC,, NC
CH3-1,2017-01-26T05:50:00Z,-79.35,54.00,5.45,19.31,,-1.08,,, NC,, NC
CH3-1,2017-01-26T06:00:00Z,-79.35,54.00,5.45,18.88,,-1.06,,, NC,, NC
CH3-1,2017-01-26T06:10:00Z,-79.35,54.00,5.45,18.13,,-1.03,,, NC,, NC
CH3-1,2017-01-26T06:20:00Z,-79.35,54.00,5.45,17.10,,-0.97,,, NC,, NC
CH3-1,2017-01-26T06:30:00Z,-79.35,54.00,5.45,17.30,,-0.98,,, NC,, NC
CH3-1,2017-01-26T06:40:00Z,-79.35,54.00,5.45,16.55,,-0.93,,, NC,, NC
CH3-1,2017-01-26T06:50:00Z,-79.35,54.00,5.45,16.70,,-0.94,,, NC,, NC
CH3-1,2017-01-26T07:00:00Z,-79.35,54.00,5.45,16.77,,-0.94,,, NC,, NC
CH3-1,2017-01-26T07:10:00Z,-79.35,54.00,5.45,16.75,,-0.94,,, NC,, NC
CH3-1,2017-01-26T07:20:00Z,-79.35,54.00,5.45,16.68,,-0.94,,, NC,, NC
CH3-1,2017-01-26T07:30:00Z,-79.35,54.00,5.45,16.75,,-0.96,,, NC,, NC
CH3-1,2017-01-26T07:40:00Z,-79.35,54.00,5.45,16.66,,-0.94,,, NC,, NC
CH3-1,2017-01-26T07:50:00Z,-79.35,54.00,5.45,16.49,,-0.94,,, NC,, NC
CH3-1,2017-01-26T08:00:00Z,-79.35,54.00,5.45,16.42,,-0.93,,, NC,, NC
CH3-1,2017-01-26T08:10:00Z,-79.35,54.00,5.45,16.36,,-0.93,,, NC,, NC
CH3-1,2017-01-26T08:20:00Z,-79.35,54.00,5.45,16.41,,-0.94,,, NC,, NC
CH3-1,2017-01-26T08:30:00Z,-79.35,54.00,5.45,16.48,,-0.94,,, NC,, NC
CH3-1,2017-01-26T08:40:00Z,-79.35,54.00,5.45,16.73,,-0.95,,, NC,, NC
CH3-1,2017-01-26T08:50:00Z,-79.35,54.00,5.45,16.86,,-0.95,,, NC,, NC
CH3-1,2017-01-26T09:00:00Z,-79.35,54.00,5.45,16.93,,-0.97,,, NC,, NC
CH3-1,2017-01-26T09:10:00Z,-79.35,54.00,5.45,16.95,,-0.97,,, NC,, NC
CH3-1,2017-01-26T09:20:00Z,-79.35,54.00,5.45,17.00,,-0.97,,, NC,, NC
CH3-1,2017-01-26T09:30:00Z,-79.35,54.00,5.45,17.06,,-0.98,,, NC,, NC
CH3-1,2017-01-26T09:40:00Z,-79.35,54.00,5.45,17.02,,-0.98,,, NC,, NC
CH3-1,2017-01-26T09:50:00Z,-79.35,54.00,5.45,16.92,,-0.97,,, NC,, NC
CH3-1,2017-01-26T10:00:00Z,-79.35,54.00,5.45,16.88,,-0.97,,, NC,, NC
CH3-1,2017-01-26T10:10:00Z,-79.35,54.00,5.45,17.20,,-0.98,,, NC,, NC
CH3-1,2017-01-26T10:20:00Z,-79.35,54.00,5.45,16.94,,-0.97,,, NC,, NC
CH3-1,2017-01-26T10:30:00Z,-79.35,54.00,5.45,16.99,,-0.97,,, NC,, NC
CH3-1,2017-01-26T10:40:00Z,-79.35,54.00,5.45,17.06,,-0.98,,, NC,, NC
CH3-1,2017-01-26T10:50:00Z,-79.35,54.00,5.45,17.12,,-0.98,,, NC,, NC
CH3-1,2017-01-26T11:00:00Z,-79.35,54.00,5.45,17.21,,-1.00,,, NC,, NC
CH3-1,2017-01-26T11:10:00Z,-79.35,54.00,5.45,17.59,,-1.00,,, NC,, NC
CH3-1,2017-01-26T11:20:00Z,-79.35,54.00,5.45,17.54,,-1.00,,, NC,, NC
CH3-1,2017-01-26T11:30:00Z,-79.35,54.00,5.45,17.23,,-0.98,,, NC,, NC
CH3-1,2017-01-26T11:40:00Z,-79.35,54.00,5.45,16.94,,-0.97,,, NC,, NC
CH3-1,2017-01-26T11:50:00Z,-79.35,54.00,5.45,17.26,,-0.97,,, NC,, NC
CH3-1,2017-01-26T12:00:00Z,-79.35,54.00,5.45,18.10,,-1.01,,, NC,, NC
CH3-1,2017-01-26T12:10:00Z,-79.35,54.00,5.45,18.84,,-1.08,,, NC,, NC
CH3-1,2017-01-26T12:20:00Z,-79.35,54.00,5.45,19.06,,-1.07,,, NC,, NC
CH3-1,2017-01-26T12:30:00Z,-79.35,54.00,5.45,18.79,,-1.05,,, NC,, NC
CH3-1,2017-01-26T12:40:00Z,-79.35,54.00,5.45,17.19,,-0.97,,, NC,, NC
CH3-1,2017-01-26T12:50:00Z,-79.35,54.00,5.45,17.70,,-0.99,,, NC,, NC
CH3-1,2017-01-26T13:00:00Z,-79.35,54.00,5.45,18.55,,-1.04,,, NC,, NC
CH3-1,2017-01-26T13:10:00Z,-79.35,54.00,5.45,18.61,,-1.04,,, NC,, NC
CH3-1,2017-01-26T13:20:00Z,-79.35,54.00,5.45,17.01,,-0.97,,, NC,, NC
CH3-1,2017-01-26T13:30:00Z,-79.35,54.00,5.45,17.44,,-0.99,,, NC,, NC
CH3-1,2017-01-26T13:40:00Z,-79.35,54.00,5.45,17.80,,-1.00,,, NC,, NC
CH3-1,2017-01-26T13:50:00Z,-79.35,54.00,5.45,17.55,,-0.98,,, NC,, NC
CH3-1,2017-01-26T14:00:00Z,-79.35,54.00,5.45,17.58,,-0.99,,, NC,, NC
CH3-1,2017-01-26T14:10:00Z,-79.35,54.00,5.45,17.46,,-0.98,,, NC,, NC
CH3-1,2017-01-26T14:20:00Z,-79.35,54.00,5.45,18.19,,-1.02,,, NC,, NC
CH3-1,2017-01-26T14:30:00Z,-79.35,54.00,5.45,18.53,,-1.04,,, NC,, NC
CH3-1,2017-01-26T14:40:00Z,-79.35,54.00,5.45,18.86,,-1.09,,, NC,, NC
CH3-1,2017-01-26T14:50:00Z,-79.35,54.00,5.45,18.65,,-1.05,,, NC,, NC
CH3-1,2017-01-26T15:00:00Z,-79.35,54.00,5.45,19.42,,-1.07,,, NC,, NC
CH3-1,2017-01-26T15:10:00Z,-79.35,54.00,5.45,19.51,,-1.08,,, NC,, NC
CH3-1,2017-01-26T15:20:00Z,-79.35,54.00,5.45,19.84,,-1.12,,, NC,, NC
CH3-1,2017-01-26T15:30:00Z,-79.35,54.00,5.45,19.72,,-1.11,,, NC,, NC
CH3-1,2017-01-26T15:40:00Z,-79.35,54.00,5.45,19.75,,-1.12,,, NC,, NC
CH3-1,2017-01-26T15:50:00Z,-79.35,54.00,5.45,20.09,,-1.14,,, NC,, NC
CH3-1,2017-01-26T16:00:00Z,-79.35,54.00,5.45,20.01,,-1.15,,, NC,, NC
CH3-1,2017-01-26T16:10:00Z,-79.35,54.00,5.45,20.35,,-1.18,,, NC,, NC
CH3-1,2017-01-26T16:20:00Z,-79.35,54.00,5.45,20.59,,-1.19,,, NC,, NC
CH3-1,2017-01-26T16:30:00Z,-79.35,54.00,5.45,20.66,,-1.20,,, NC,, NC
CH3-1,2017-01-26T16:40:00Z,-79.35,54.00,5.45,20.19,,-1.13,,, NC,, NC
CH3-1,2017-01-26T16:50:00Z,-79.35,54.00,5.45,20.07,,-1.12,,, NC,, NC
CH3-1,2017-01-26T17:00:00Z,-79.35,54.00,5.45,20.28,,-1.12,,, NC,, NC
CH3-1,2017-01-26T17:10:00Z,-79.35,54.00,5.45,20.00,,-1.09,,, NC,, NC
CH3-1,2017-01-26T17:20:00Z,-79.35,54.00,5.45,20.41,,-1.14,,, NC,, NC
CH3-1,2017-01-26T17:30:00Z,-79.35,54.00,5.45,19.95,,-1.11,,, NC,, NC
CH3-1,2017-01-26T17:40:00Z,-79.35,54.00,5.45,19.61,,-1.08,,, NC,, NC
CH3-1,2017-01-26T17:50:00Z,-79.35,54.00,5.45,19.85,,-1.11,,, NC,, NC
CH3-1,2017-01-26T18:00:00Z,-79.35,54.00,5.45,19.63,,-1.08,,, NC,, NC
CH3-1,2017-01-26T18:10:00Z,-79.35,54.00,5.45,19.62,,-1.08,,, NC,, NC
CH3-1,2017-01-26T18:20:00Z,-79.35,54.00,5.45,19.70,,-1.09,,, NC,, NC
CH3-1,2017-01-26T18:30:00Z,-79.35,54.00,5.45,19.70,,-1.08,,, NC,, NC
CH3-1,2017-01-26T18:40:00Z,-79.35,54.00,5.45,19.52,,-1.08,,, NC,, NC
CH3-1,2017-01-26T18:50:00Z,-79.35,54.00,5.45,19.51,,-1.07,,, NC,, NC
CH3-1,2017-01-26T19:00:00Z,-79.35,54.00,5.45,19.52,,-1.07,,, NC,, NC
CH3-1,2017-01-26T19:10:00Z,-79.35,54.00,5.45,19.56,,-1.06,,, NC,, NC
CH3-1,2017-01-26T19:20:00Z,-79.35,54.00,5.45,19.63,,-1.06,,, NC,, NC
CH3-1,2017-01-26T19:30:00Z,-79.35,54.00,5.45,20.12,,-1.06,,, NC,, NC
CH3-1,2017-01-26T19:40:00Z,-79.35,54.00,5.45,19.85,,-1.07,,, NC,, NC
CH3-1,2017-01-26T19:50:00Z,-79.35,54.00,5.45,19.76,,-1.06,,, NC,, NC
CH3-1,2017-01-26T20:00:00Z,-79.35,54.00,5.45,19.72,,-1.05,,, NC,, NC
CH3-1,2017-01-26T20:10:00Z,-79.35,54.00,5.45,19.65,,-1.05,,, NC,, NC
CH3-1,2017-01-26T20:20:00Z,-79.35,54.00,5.45,19.70,,-1.05,,, NC,, NC
CH3-1,2017-01-26T20:30:00Z,-79.35,54.00,5.45,19.85,,-1.06,,, NC,, NC
CH3-1,2017-01-26T20:40:00Z,-79.35,54.00,5.45,19.66,,-1.06,,, NC,, NC
CH3-1,2017-01-26T20:50:00Z,-79.35,54.00,5.45,19.70,,-1.07,,, NC,, NC
CH3-1,2017-01-26T21:00:00Z,-79.35,54.00,5.45,19.84,,-1.09,,, NC,, NC
CH3-1,2017-01-26T21:10:00Z,-79.35,54.00,5.45,19.65,,-1.07,,, NC,, NC
CH3-1,2017-01-26T21:20:00Z,-79.35,54.00,5.45,19.74,,-1.09,,, NC,, NC
CH3-1,2017-01-26T21:30:00Z,-79.35,54.00,5.45,19.82,,-1.09,,, NC,, NC
CH3-1,2017-01-26T21:40:00Z,-79.35,54.00,5.45,19.57,,-1.06,,, NC,, NC
CH3-1,2017-01-26T21:50:00Z,-79.35,54.00,5.45,19.50,,-1.07,,, NC,, NC
CH3-1,2017-01-26T22:00:00Z,-79.35,54.00,5.45,19.37,,-1.06,,, NC,, NC
CH3-1,2017-01-26T22:10:00Z,-79.35,54.00,5.45,19.19,,-1.05,,, NC,, NC
CH3-1,2017-01-26T22:20:00Z,-79.35,54.00,5.45,19.14,,-1.05,,, NC,, NC
CH3-1,2017-01-26T22:30:00Z,-79.35,54.00,5.45,18.84,,-1.02,,, NC,, NC
CH3-1,2017-01-26T22:40:00Z,-79.35,54.00,5.45,18.56,,-1.01,,, NC,, NC
CH3-1,2017-01-26T22:50:00Z,-79.35,54.00,5.45,18.62,,-1.03,,, NC,, NC
CH3-1,2017-01-26T23:00:00Z,-79.35,54.00,5.45,17.78,,-0.98,,, NC,, NC
CH3-1,2017-01-26T23:10:00Z,-79.35,54.00,5.45,18.40,,-1.00,,, NC,, NC
CH3-1,2017-01-26T23:20:00Z,-79.35,54.00,5.45,18.58,,-1.02,,, NC,, NC
CH3-1,2017-01-26T23:30:00Z,-79.35,54.00,5.45,19.11,,-1.05,,, NC,, NC
CH3-1,2017-01-26T23:40:00Z,-79.35,54.00,5.45,18.96,,-1.05,,, NC,, NC
CH3-1,2017-01-26T23:50:00Z,-79.35,54.00,5.45,19.29,,-1.06,,, NC,, NC
CH3-1,2017-01-27T00:00:00Z,-79.35,54.00,5.45,19.49,,-1.07,,, NC,, NC
CH3-1,2017-01-27T00:10:00Z,-79.35,54.00,5.45,19.31,,-1.08,,, NC,, NC
CH3-1,2017-01-27T00:20:00Z,-79.35,54.00,5.45,18.99,,-1.06,,, NC,, NC
CH3-1,2017-01-27T00:30:00Z,-79.35,54.00,5.45,18.77,,-1.03,,, NC,, NC
CH3-1,2017-01-27T00:40:00Z,-79.35,54.00,5.45,18.80,,-1.03,,, NC,, NC
CH3-1,2017-01-27T00:50:00Z,-79.35,54.00,5.45,19.06,,-1.04,,, NC,, NC
CH3-1,2017-01-27T01:00:00Z,-79.35,54.00,5.45,19.28,,-1.06,,, NC,, NC
CH3-1,2017-01-27T01:10:00Z,-79.35,54.00,5.45,17.59,,-0.98,,, NC,, NC
CH3-1,2017-01-27T01:20:00Z,-79.35,54.00,5.45,17.60,,-0.98,,, NC,, NC
CH3-1,2017-01-27T01:30:00Z,-79.35,54.00,5.45,18.44,,-1.03,,, NC,, NC
CH3-1,2017-01-27T01:40:00Z,-79.35,54.00,5.45,18.71,,-1.04,,, NC,, NC
CH3-1,2017-01-27T01:50:00Z,-79.35,54.00,5.45,18.87,,-1.05,,, NC,, NC
CH3-1,2017-01-27T02:00:00Z,-79.35,54.00,5.45,19.16,,-1.07,,, NC,, NC
CH3-1,2017-01-27T02:10:00Z,-79.35,54.00,5.45,19.30,,-1.08,,, NC,, NC
CH3-1,2017-01-27T02:20:00Z,-79.35,54.00,5.45,19.30,,-1.07,,, NC,, NC
CH3-1,2017-01-27T02:30:00Z,-79.35,54.00,5.45,19.55,,-1.08,,, NC,, NC
CH3-1,2017-01-27T02:40:00Z,-79.35,54.00,5.45,18.87,,-1.03,,, NC,, NC
CH3-1,2017-01-27T02:50:00Z,-79.35,54.00,5.45,19.00,,-1.03,,, NC,, NC
CH3-1,2017-01-27T03:00:00Z,-79.35,54.00,5.45,19.18,,-1.05,,, NC,, NC
CH3-1,2017-01-27T03:10:00Z,-79.35,54.00,5.45,19.04,,-1.04,,, NC,, NC
CH3-1,2017-01-27T03:20:00Z,-79.35,54.00,5.45,19.30,,-1.05,,, NC,, NC
CH3-1,2017-01-27T03:30:00Z,-79.35,54.00,5.45,19.47,,-1.07,,, NC,, NC
CH3-1,2017-01-27T03:40:00Z,-79.35,54.00,5.45,19.59,,-1.08,,, NC,, NC
CH3-1,2017-01-27T03:50:00Z,-79.35,54.00,5.45,19.68,,-1.09,,, NC,, NC
CH3-1,2017-01-27T04:00:00Z,-79.35,54.00,5.45,19.96,,-1.10,,, NC,, NC
CH3-1,2017-01-27T04:10:00Z,-79.35,54.00,5.45,20.33,,-1.12,,, NC,, NC
CH3-1,2017-01-27T04:20:00Z,-79.35,54.00,5.45,20.33,,-1.13,,, NC,, NC
CH3-1,2017-01-27T04:30:00Z,-79.35,54.00,5.45,20.80,,-1.16,,, NC,, NC
CH3-1,2017-01-27T04:40:00Z,-79.35,54.00,5.45,21.28,,-1.20,,, NC,, NC
CH3-1,2017-01-27T04:50:00Z,-79.35,54.00,5.45,21.39,,-1.21,,, NC,, NC
CH3-1,2017-01-27T05:00:00Z,-79.35,54.00,5.45,21.74,,-1.25,,, NC,, NC
CH3-1,2017-01-27T05:10:00Z,-79.35,54.00,5.45,21.54,,-1.23,,, NC,, NC
CH3-1,2017-01-27T05:20:00Z,-79.35,54.00,5.45,21.73,,-1.24,,, NC,, NC
CH3-1,2017-01-27T05:30:00Z,-79.35,54.00,5.45,20.64,,-1.16,,, NC,, NC
CH3-1,2017-01-27T05:40:00Z,-79.35,54.00,5.45,20.57,,-1.15,,, NC,, NC
CH3-1,2017-01-27T05:50:00Z,-79.35,54.00,5.45,20.15,,-1.10,,, NC,, NC
CH3-1,2017-01-27T06:00:00Z,-79.35,54.00,5.45,20.32,,-1.12,,, NC,, NC
CH3-1,2017-01-27T06:10:00Z,-79.35,54.00,5.45,20.70,,-1.15,,, NC,, NC
CH3-1,2017-01-27T06:20:00Z,-79.35,54.00,5.45,20.79,,-1.16,,, NC,, NC
CH3-1,2017-01-27T06:30:00Z,-79.35,54.00,5.45,20.62,,-1.15,,, NC,, NC
CH3-1,2017-01-27T06:40:00Z,-79.35,54.00,5.45,20.68,,-1.16,,, NC,, NC
CH3-1,2017-01-27T06:50:00Z,-79.35,54.00,5.45,20.76,,-1.16,,, NC,, NC
CH3-1,2017-01-27T07:00:00Z,-79.35,54.00,5.45,20.90,,-1.18,,, NC,, NC
CH3-1,2017-01-27T07:10:00Z,-79.35,54.00,5.45,20.82,,-1.18,,, NC,, NC
CH3-1,2017-01-27T07:20:00Z,-79.35,54.00,5.45,20.85,,-1.18,,, NC,, NC
CH3-1,2017-01-27T07:30:00Z,-79.35,54.00,5.45,20.87,,-1.18,,, NC,, NC
CH3-1,2017-01-27T07:40:00Z,-79.35,54.00,5.45,21.08,,-1.20,,, NC,, NC
CH3-1,2017-01-27T07:50:00Z,-79.35,54.00,5.45,21.16,,-1.20,,, NC,, NC
CH3-1,2017-01-27T08:00:00Z,-79.35,54.00,5.45,20.28,,-1.14,,, NC,, NC
CH3-1,2017-01-27T08:10:00Z,-79.35,54.00,5.45,20.33,,-1.12,,, NC,, NC
CH3-1,2017-01-27T08:20:00Z,-79.35,54.00,5.45,19.97,,-1.11,,, NC,, NC
CH3-1,2017-01-27T08:30:00Z,-79.35,54.00,5.45,20.37,,-1.13,,, NC,, NC
CH3-1,2017-01-27T08:40:00Z,-79.35,54.00,5.45,20.03,,-1.11,,, NC,, NC
CH3-1,2017-01-27T08:50:00Z,-79.35,54.00,5.45,20.11,,-1.11,,, NC,, NC
CH3-1,2017-01-27T09:00:00Z,-79.35,54.00,5.45,20.25,,-1.14,,, NC,, NC
CH3-1,2017-01-27T09:10:00Z,-79.35,54.00,5.45,20.17,,-1.13,,, NC,, NC
CH3-1,2017-01-27T09:20:00Z,-79.35,54.00,5.45,20.51,,-1.15,,, NC,, NC
CH3-1,2017-01-27T09:30:00Z,-79.35,54.00,5.45,20.71,,-1.16,,, NC,, NC
CH3-1,2017-01-27T09:40:00Z,-79.35,54.00,5.45,20.71,,-1.16,,, NC,, NC
CH3-1,2017-01-27T09:50:00Z,-79.35,54.00,5.45,20.70,,-1.15,,, NC,, NC
CH3-1,2017-01-27T10:00:00Z,-79.35,54.00,5.45,20.72,,-1.15,,, NC,, NC
CH3-1,2017-01-27T10:10:00Z,-79.35,54.00,5.45,20.39,,-1.13,,, NC,, NC
CH3-1,2017-01-27T10:20:00Z,-79.35,54.00,5.45,20.40,,-1.14,,, NC,, NC
CH3-1,2017-01-27T10:30:00Z,-79.35,54.00,5.45,20.82,,-1.15,,, NC,, NC
CH3-1,2017-01-27T10:40:00Z,-79.35,54.00,5.45,20.37,,-1.12,,, NC,, NC
CH3-1,2017-01-27T10:50:00Z,-79.35,54.00,5.45,20.50,,-1.14,,, NC,, NC
CH3-1,2017-01-27T11:00:00Z,-79.35,54.00,5.45,20.26,,-1.11,,, NC,, NC
CH3-1,2017-01-27T11:10:00Z,-79.35,54.00,5.45,20.06,,-1.10,,, NC,, NC
CH3-1,2017-01-27T11:20:00Z,-79.35,54.00,5.45,19.77,,-1.08,,, NC,, NC
CH3-1,2017-01-27T11:30:00Z,-79.35,54.00,5.45,19.45,,-1.07,,, NC,, NC
CH3-1,2017-01-27T11:40:00Z,-79.35,54.00,5.45,19.69,,-1.09,,, NC,, NC
CH3-1,2017-01-27T11:50:00Z,-79.35,54.00,5.45,20.16,,-1.12,,, NC,, NC
CH3-1,2017-01-27T12:00:00Z,-79.35,54.00,5.45,19.79,,-1.09,,, NC,, NC
CH3-1,2017-01-27T12:10:00Z,-79.35,54.00,5.45,19.42,,-1.07,,, NC,, NC
CH3-1,2017-01-27T12:20:00Z,-79.35,54.00,5.45,19.51,,-1.08,,, NC,, NC
CH3-1,2017-01-27T12:30:00Z,-79.35,54.00,5.45,19.74,,-1.09,,, NC,, NC
CH3-1,2017-01-27T12:40:00Z,-79.35,54.00,5.45,19.83,,-1.08,,, NC,, NC
CH3-1,2017-01-27T12:50:00Z,-79.35,54.00,5.45,18.86,,-1.03,,, NC,, NC
CH3-1,2017-01-27T13:00:00Z,-79.35,54.00,5.45,19.04,,-1.04,,, NC,, NC
CH3-1,2017-01-27T13:10:00Z,-79.35,54.00,5.45,19.04,,-1.04,,, NC,, NC
CH3-1,2017-01-27T13:20:00Z,-79.35,54.00,5.45,18.92,,-1.03,,, NC,, NC
CH3-1,2017-01-27T13:30:00Z,-79.35,54.00,5.45,19.20,,-1.04,,, NC,, NC
CH3-1,2017-01-27T13:40:00Z,-79.35,54.00,5.45,19.37,,-1.05,,, NC,, NC
CH3-1,2017-01-27T13:50:00Z,-79.35,54.00,5.45,19.38,,-1.06,,, NC,, NC
CH3-1,2017-01-27T14:00:00Z,-79.35,54.00,5.45,19.36,,-1.06,,, NC,, NC
CH3-1,2017-01-27T14:10:00Z,-79.35,54.00,5.45,19.53,,-1.07,,, NC,, NC
CH3-1,2017-01-27T14:20:00Z,-79.35,54.00,5.45,19.75,,-1.08,,, NC,, NC
CH3-1,2017-01-27T14:30:00Z,-79.35,54.00,5.45,20.12,,-1.11,,, NC,, NC
CH3-1,2017-01-27T14:40:00Z,-79.35,54.00,5.45,20.11,,-1.11,,, NC,, NC
CH3-1,2017-01-27T14:50:00Z,-79.35,54.00,5.45,20.13,,-1.11,,, NC,, NC
CH3-1,2017-01-27T15:00:00Z,-79.35,54.00,5.45,20.43,,-1.13,,, NC,, NC
CH3-1,2017-01-27T15:10:00Z,-79.35,54.00,5.45,20.57,,-1.14,,, NC,, NC
CH3-1,2017-01-27T15:20:00Z,-79.35,54.00,5.45,20.65,,-1.15,,, NC,, NC
CH3-1,2017-01-27T15:30:00Z,-79.35,54.00,5.45,20.88,,-1.16,,, NC,, NC
CH3-1,2017-01-27T15:40:00Z,-79.35,54.00,5.45,21.02,,-1.17,,, NC,, NC
CH3-1,2017-01-27T15:50:00Z,-79.35,54.00,5.45,20.99,,-1.18,,, NC,, NC
CH3-1,2017-01-27T16:00:00Z,-79.35,54.00,5.45,20.75,,-1.15,,, NC,, NC
CH3-1,2017-01-27T16:10:00Z,-79.35,54.00,5.45,20.93,,-1.16,,, NC,, NC
CH3-1,2017-01-27T16:20:00Z,-79.35,54.00,5.45,20.86,,-1.16,,, NC,, NC
CH3-1,2017-01-27T16:30:00Z,-79.35,54.00,5.45,20.94,,-1.17,,, NC,, NC
CH3-1,2017-01-27T16:40:00Z,-79.35,54.00,5.45,21.14,,-1.18,,, NC,, NC
CH3-1,2017-01-27T16:50:00Z,-79.35,54.00,5.45,21.17,,-1.19,,, NC,, NC
CH3-1,2017-01-27T17:00:00Z,-79.35,54.00,5.45,21.16,,-1.19,,, NC,, NC
CH3-1,2017-01-27T17:10:00Z,-79.35,54.00,5.45,21.19,,-1.19,,, NC,, NC
CH3-1,2017-01-27T17:20:00Z,-79.35,54.00,5.45,21.23,,-1.19,,, NC,, NC
CH3-1,2017-01-27T17:30:00Z,-79.35,54.00,5.45,21.46,,-1.19,,, NC,, NC
CH3-1,2017-01-27T17:40:00Z,-79.35,54.00,5.45,21.67,,-1.22,,, NC,, NC
CH3-1,2017-01-27T17:50:00Z,-79.35,54.00,5.45,21.95,,-1.24,,, NC,, NC
CH3-1,2017-01-27T18:00:00Z,-79.35,54.00,5.45,22.35,,-1.27,,, NC,, NC
CH3-1,2017-01-27T18:10:00Z,-79.35,54.00,5.45,22.03,,-1.24,,, NC,, NC
CH3-1,2017-01-27T18:20:00Z,-79.35,54.00,5.45,21.71,,-1.22,,, NC,, NC
CH3-1,2017-01-27T18:30:00Z,-79.35,54.00,5.45,21.68,,-1.20,,, NC,, NC
CH3-1,2017-01-27T18:40:00Z,-79.35,54.00,5.45,21.23,,-1.16,,, NC,, NC
CH3-1,2017-01-27T18:50:00Z,-79.35,54.00,5.45,21.34,,-1.16,,, NC,, NC
CH3-1,2017-01-27T19:00:00Z,-79.35,54.00,5.45,21.14,,-1.16,,, NC,, NC
CH3-1,2017-01-27T19:10:00Z,-79.35,54.00,5.45,21.18,,-1.17,,, NC,, NC
CH3-1,2017-01-27T19:20:00Z,-79.35,54.00,5.45,21.03,,-1.15,,, NC,, NC
CH3-1,2017-01-27T19:30:00Z,-79.35,54.00,5.45,20.77,,-1.13,,, NC,, NC
CH3-1,2017-01-27T19:40:00Z,-79.35,54.00,5.45,20.65,,-1.12,,, NC,, NC
CH3-1,2017-01-27T19:50:00Z,-79.35,54.00,5.45,20.85,,-1.14,,, NC,, NC
CH3-1,2017-01-27T20:00:00Z,-79.35,54.00,5.45,20.65,,-1.13,,, NC,, NC
CH3-1,2017-01-27T20:10:00Z,-79.35,54.00,5.45,20.90,,-1.14,,, NC,, NC
CH3-1,2017-01-27T20:20:00Z,-79.35,54.00,5.45,20.85,,-1.14,,, NC,, NC
CH3-1,2017-01-27T20:30:00Z,-79.35,54.00,5.45,20.77,,-1.14,,, NC,, NC
CH3-1,2017-01-27T20:40:00Z,-79.35,54.00,5.45,20.76,,-1.13,,, NC,, NC
CH3-1,2017-01-27T20:50:00Z,-79.35,54.00,5.45,20.68,,-1.13,,, NC,, NC
CH3-1,2017-01-27T21:00:00Z,-79.35,54.00,5.45,20.50,,-1.10,,, NC,, NC
CH3-1,2017-01-27T21:10:00Z,-79.35,54.00,5.45,20.08,,-1.08,,, NC,, NC
CH3-1,2017-01-27T21:20:00Z,-79.35,54.00,5.45,20.06,,-1.07,,, NC,, NC
CH3-1,2017-01-27T21:30:00Z,-79.35,54.00,5.45,20.00,,-1.07,,, NC,, NC
CH3-1,2017-01-27T21:40:00Z,-79.35,54.00,5.45,19.71,,-1.05,,, NC,, NC
CH3-1,2017-01-27T21:50:00Z,-79.35,54.00,5.45,19.60,,-1.05,,, NC,, NC
CH3-1,2017-01-27T22:00:00Z,-79.35,54.00,5.45,19.77,,-1.06,,, NC,, NC
CH3-1,2017-01-27T22:10:00Z,-79.35,54.00,5.45,19.55,,-1.06,,, NC,, NC
CH3-1,2017-01-27T22:20:00Z,-79.35,54.00,5.45,19.32,,-1.06,,, NC,, NC
CH3-1,2017-01-27T22:30:00Z,-79.35,54.00,5.45,19.60,,-1.07,,, NC,, NC
CH3-1,2017-01-27T22:40:00Z,-79.35,54.00,5.45,19.96,,-1.09,,, NC,, NC
CH3-1,2017-01-27T22:50:00Z,-79.35,54.00,5.45,18.70,,-1.03,,, NC,, NC
CH3-1,2017-01-27T23:00:00Z,-79.35,54.00,5.45,19.35,,-1.06,,, NC,, NC
CH3-1,2017-01-27T23:10:00Z,-79.35,54.00,5.45,18.93,,-1.03,,, NC,, NC
CH3-1,2017-01-27T23:20:00Z,-79.35,54.00,5.45,19.27,,-1.04,,, NC,, NC
CH3-1,2017-01-27T23:30:00Z,-79.35,54.00,5.45,19.54,,-1.06,,, NC,, NC
CH3-1,2017-01-27T23:40:00Z,-79.35,54.00,5.45,19.82,,-1.07,,, NC,, NC
CH3-1,2017-01-27T23:50:00Z,-79.35,54.00,5.45,20.22,,-1.10,,, NC,, NC
CH3-1,2017-01-28T00:00:00Z,-79.35,54.00,5.45,20.09,,-1.09,,, NC,, NC
CH3-1,2017-01-28T00:10:00Z,-79.35,54.00,5.45,20.35,,-1.11,,, NC,, NC
CH3-1,2017-01-28T00:20:00Z,-79.35,54.00,5.45,20.55,,-1.12,,, NC,, NC
CH3-1,2017-01-28T00:30:00Z,-79.35,54.00,5.45,20.19,,-1.10,,, NC,, NC
CH3-1,2017-01-28T00:40:00Z,-79.35,54.00,5.45,19.61,,-1.06,,, NC,, NC
CH3-1,2017-01-28T00:50:00Z,-79.35,54.00,5.45,19.81,,-1.07,,, NC,, NC
CH3-1,2017-01-28T01:00:00Z,-79.35,54.00,5.45,19.75,,-1.08,,, NC,, NC
CH3-1,2017-01-28T01:10:00Z,-79.35,54.00,5.45,19.68,,-1.07,,, NC,, NC
CH3-1,2017-01-28T01:20:00Z,-79.35,54.00,5.45,20.23,,-1.11,,, NC,, NC
CH3-1,2017-01-28T01:30:00Z,-79.35,54.00,5.45,20.43,,-1.12,,, NC,, NC
CH3-1,2017-01-28T01:40:00Z,-79.35,54.00,5.45,20.78,,-1.15,,, NC,, NC
CH3-1,2017-01-28T01:50:00Z,-79.35,54.00,5.45,20.71,,-1.13,,, NC,, NC
CH3-1,2017-01-28T02:00:00Z,-79.35,54.00,5.45,20.77,,-1.13,,, NC,, NC
CH3-1,2017-01-28T02:10:00Z,-79.35,54.00,5.45,20.68,,-1.13,,, NC,, NC
CH3-1,2017-01-28T02:20:00Z,-79.35,54.00,5.45,20.72,,-1.13,,, NC,, NC
CH3-1,2017-01-28T02:30:00Z,-79.35,54.00,5.45,20.23,,-1.11,,, NC,, NC
CH3-1,2017-01-28T02:40:00Z,-79.35,54.00,5.45,19.74,,-1.08,,, NC,, NC
CH3-1,2017-01-28T02:50:00Z,-79.35,54.00,5.45,20.05,,-1.09,,, NC,, NC
CH3-1,2017-01-28T03:00:00Z,-79.35,54.00,5.45,19.71,,-1.07,,, NC,, NC
CH3-1,2017-01-28T03:10:00Z,-79.35,54.00,5.45,19.87,,-1.09,,, NC,, NC
CH3-1,2017-01-28T03:20:00Z,-79.35,54.00,5.45,20.14,,-1.10,,, NC,, NC
CH3-1,2017-01-28T03:30:00Z,-79.35,54.00,5.45,20.08,,-1.10,,, NC,, NC
CH3-1,2017-01-28T03:40:00Z,-79.35,54.00,5.45,20.52,,-1.12,,, NC,, NC
CH3-1,2017-01-28T03:50:00Z,-79.35,54.00,5.45,20.48,,-1.13,,, NC,, NC
CH3-1,2017-01-28T04:00:00Z,-79.35,54.00,5.45,20.28,,-1.11,,, NC,, NC
CH3-1,2017-01-28T04:10:00Z,-79.35,54.00,5.45,19.92,,-1.08,,, NC,, NC
CH3-1,2017-01-28T04:20:00Z,-79.35,54.00,5.45,19.96,,-1.08,,, NC,, NC
CH3-1,2017-01-28T04:30:00Z,-79.35,54.00,5.45,20.22,,-1.10,,, NC,, NC
CH3-1,2017-01-28T04:40:00Z,-79.35,54.00,5.45,20.42,,-1.11,,, NC,, NC
CH3-1,2017-01-28T04:50:00Z,-79.35,54.00,5.45,20.57,,-1.13,,, NC,, NC
CH3-1,2017-01-28T05:00:00Z,-79.35,54.00,5.45,20.71,,-1.14,,, NC,, NC
CH3-1,2017-01-28T05:10:00Z,-79.35,54.00,5.45,21.06,,-1.17,,, NC,, NC
CH3-1,2017-01-28T05:20:00Z,-79.35,54.00,5.45,21.27,,-1.18,,, NC,, NC
CH3-1,2017-01-28T05:30:00Z,-79.35,54.00,5.45,21.66,,-1.21,,, NC,, NC
CH3-1,2017-01-28T05:40:00Z,-79.35,54.00,5.45,21.80,,-1.21,,, NC,, NC
CH3-1,2017-01-28T05:50:00Z,-79.35,54.00,5.45,21.75,,-1.21,,, NC,, NC
CH3-1,2017-01-28T06:00:00Z,-79.35,54.00,5.45,21.04,,-1.15,,, NC,, NC
CH3-1,2017-01-28T06:10:00Z,-79.35,54.00,5.45,21.12,,-1.16,,, NC,, NC
CH3-1,2017-01-28T06:20:00Z,-79.35,54.00,5.45,21.15,,-1.17,,, NC,, NC
CH3-1,2017-01-28T06:30:00Z,-79.35,54.00,5.45,21.01,,-1.16,,, NC,, NC
CH3-1,2017-01-28T06:40:00Z,-79.35,54.00,5.45,21.17,,-1.16,,, NC,, NC
CH3-1,2017-01-28T06:50:00Z,-79.35,54.00,5.45,20.90,,-1.15,,, NC,, NC
CH3-1,2017-01-28T07:00:00Z,-79.35,54.00,5.45,21.16,,-1.15,,, NC,, NC
CH3-1,2017-01-28T07:10:00Z,-79.35,54.00,5.45,21.32,,-1.17,,, NC,, NC
CH3-1,2017-01-28T07:20:00Z,-79.35,54.00,5.45,21.19,,-1.15,,, NC,, NC
CH3-1,2017-01-28T07:30:00Z,-79.35,54.00,5.45,20.98,,-1.14,,, NC,, NC
CH3-1,2017-01-28T07:40:00Z,-79.35,54.00,5.45,21.42,,-1.17,,, NC,, NC
CH3-1,2017-01-28T07:50:00Z,-79.35,54.00,5.45,21.22,,-1.15,,, NC,, NC
CH3-1,2017-01-28T08:00:00Z,-79.35,54.00,5.45,21.40,,-1.15,,, NC,, NC
CH3-1,2017-01-28T08:10:00Z,-79.35,54.00,5.45,21.18,,-1.14,,, NC,, NC
CH3-1,2017-01-28T08:20:00Z,-79.35,54.00,5.45,21.22,,-1.16,,, NC,, NC
CH3-1,2017-01-28T08:30:00Z,-79.35,54.00,5.45,21.25,,-1.16,,, NC,, NC
CH3-1,2017-01-28T08:40:00Z,-79.35,54.00,5.45,21.18,,-1.16,,, NC,, NC
CH3-1,2017-01-28T08:50:00Z,-79.35,54.00,5.45,21.15,,-1.15,,, NC,, NC
CH3-1,2017-01-28T09:00:00Z,-79.35,54.00,5.45,21.23,,-1.16,,, NC,, NC
CH3-1,2017-01-28T09:10:00Z,-79.35,54.00,5.45,21.34,,-1.17,,, NC,, NC